Tracking 18032 objects as of 27-March-2017
HD Live streaming from Space Station
objects crossing your sky now

SL-16 DEB

Track SL-16 DEB now!
10-day predictions


NORAD ID: 19658
Int'l Code: 1988-102E
Perigee: 846.1 km
Apogee: 1,136.4 km
Inclination: 71.0 °
Period: 104.8 minutes
Semi major axis: 7362 km
RCS: 0.0923 m2 (small)
Launch date: November 23, 1988
Source: Commonwealth of Independent States (former USSR) (CIS)
Launch site: TYURATAM MISSILE AND SPACE COMPLEX (TTMTR)

Note: This is SATELLITE DEBRIS
Your satellite tracking list
Your tracking list is empty





NASA's NSSDC Master Catalog

Two Line Element Set (TLE):
1 19658U 88102E   17084.84796728 +.00000008 +00000-0 +45672-4 0  9995
2 19658 071.0217 238.0187 0197169 135.9094 334.1971 13.74316584420457
Source of the keplerian elements: AFSPC